星链-1138 (STARLINK-1138 )

导读 | 星芒AI

STARLINK-1138 是 SpaceX 星链计划中的一颗低轨通信卫星,属于第十一组星链卫星。该卫星于2021年10月31日由猎鹰9号火箭成功送入近地轨道,旨在为全球用户提供高速互联网服务。它运行在约550公里高的轨道上,采用先进的通信技术,支持宽带数据传输。星链项目计划部署数万颗卫星,以构建覆盖全球的卫星互联网网络。STARLINK-1138 在提升偏远地区网络接入能力方面发挥着重要作用。

基本信息
目录编号:
45178
目录名称:
STARLINK-1138
国际标识:
2020-012A
轨道中心:
EARTH
卫星名称:
星链-1138
卫星全名:
星链-1138 (STARLINK-1138 )
卫星状态:
已陨落 最后检测时间 2025-01-24
发射日期:
2020-02-17 UTC
国别 :
美国 (US)
星等 :
--
轨道信息
数据来源 国际轨道数据
星历时间: 2025-01-24T17:50:01+0800
轨道信息已过期278天
半长轴: 6523.362km
偏心率: 0.0003757
轨道倾角: 53.029°
近地点辐角 214.946°
升交点赤经 49.513°
平近点角 243.387°
近地点: 142.776km
远地点: 147.678km
周期: 87.391分钟
每日圈数: 16.477661
详细信息
固有亮度:
5
最大亮度:
2.5
卫星平台:
Starlink V1.0
覆盖范围:
全球
运营商:
太空探索技术公司
运营商所在国:
美国
制造商(研发单位):
太空探索技术公司
制造商所在国:
美国
使用方式:
暂无
卫星简介
星链(Starlink)计划是由太空探索技术公司(SpaceX)提出的一个巨型低轨卫星互联网星座项目,计划在2019年至2024年间在太空搭建由约1.2万颗卫星组成的“星链”网络,其中1584颗将部署在地球上空550千米处的近地轨道,并从2020年开始工作。该卫星仍在工作。